User: anonymous   Login
Location: Caltech
(34.1382°N, 118.1253°W)
Time: 23:54:11
(UTC-07:00)
Language:

Cosmos 1408 Rocket - Orbit

View from above orbital plane
View from above orbital plane
View from above satellite
View from above satellite

Ground track
Ground track

The orbit data is extracted from the following two-line orbital elements,

1 13553U 82092B   16150.72587618  .00000111  00000-0  10452-4 0  9994
2 13553  82.5703 231.3192 0020264 229.1155 245.2587 14.84056736820168
Epoch (UTC): 29 May 2016 17:25:15
Eccentricity: 0.0020264
inclination: 82.5703°
perigee height: 602 km
apogee height: 631 km
right ascension of ascending node: 231.3192°
argument of perigee: 229.1155°
revolutions per day: 14.84056736
mean anomaly at epoch: 245.2587°
orbit number at epoch: 82016

The dashed part of the orbit path shows where the satellite is in the earth's shadow,  

DLR